| time (UTC) | temp F | wind direction | speed knots | gust knots | rain 1hr in | rain 24hr in | rain mn in | humidity % | barometer mb |
| 20260502183502 | 42 | 298 | 11.3 | 12.2 | 0.00 | 0.00 | 0.00 | 55 | 1022.8 |
| 20260502182002 | 42 | 268 | 11.3 | 12.2 | 0.00 | 0.00 | 0.00 | 64 | 1022.9 |
| 20260502181501 | 42 | 284 | 10.4 | 11.3 | 0.00 | 0.00 | 0.00 | 61 | 1022.9 |
| 20260502164002 | 41 | 258 | 12.2 | 13.0 | 0.00 | 0.00 | 0.00 | 66 | 1023.1 |
| 20260502163501 | 41 | 258 | 14.8 | 17.4 | 0.00 | 0.00 | 0.00 | 62 | 1023.1 |
| 20260502163002 | 41 | 268 | 13.9 | 16.5 | 0.00 | 0.00 | 0.00 | 62 | 1023.1 |
| 20260502162502 | 42 | 259 | 9.6 | 11.3 | 0.00 | 0.00 | 0.00 | 61 | 1023.2 |
| 20260502162002 | 42 | 283 | 11.3 | 13.0 | 0.00 | 0.00 | 0.00 | 58 | 1023.1 |
| 20260502161502 | 42 | 287 | 10.4 | 12.2 | 0.00 | 0.00 | 0.00 | 65 | 1023.3 |
| 20260502161001 | 42 | 273 | 10.4 | 12.2 | 0.00 | 0.00 | 0.00 | 66 | 1023.3 |
| 20260502151502 | 40 | 290 | 9.6 | 10.4 | 0.00 | 0.00 | 0.00 | 67 | 1024.0 |
| 20260502130502 | 37 | 290 | 4.3 | 5.2 | 0.00 | 0.00 | 0.00 | 82 | 1025.4 |
| 20260502123002 | 35 | 279 | 4.3 | 5.2 | 0.00 | 0.00 | 0.00 | 86 | 1025.9 |
| 20260502122002 | 34 | 292 | 4.3 | 5.2 | 0.00 | 0.00 | 0.00 | 86 | 1026.1 |
| 20260502121501 | 34 | 291 | 3.5 | 3.5 | 0.00 | 0.00 | 0.00 | 86 | 1026.1 |
| 20260502121002 | 34 | 276 | 3.5 | 3.5 | 0.00 | 0.00 | 0.00 | 86 | 1026.2 |
| 20260502120501 | 33 | 299 | 2.6 | 2.6 | 0.00 | 0.00 | 0.00 | 89 | 1026.2 |
| 20260502115502 | 33 | 294 | 2.6 | 3.5 | 0.00 | 0.00 | 0.00 | 89 | 1026.4 |
| 20260502115002 | 33 | 283 | 3.5 | 3.5 | 0.00 | 0.00 | 0.00 | 89 | 1026.4 |
| 20260502114001 | 32 | 286 | 4.3 | 5.2 | 0.00 | 0.00 | 0.00 | 91 | 1026.3 |
| 20260502113502 | 32 | 287 | 3.5 | 4.3 | 0.00 | 0.00 | 0.00 | 93 | 1026.3 |
| 20260502113002 | 32 | 297 | 5.2 | 5.2 | 0.00 | 0.00 | 0.00 | 95 | 1026.3 |
| 20260502112502 | 31 | 287 | 2.6 | 3.5 | 0.00 | 0.00 | 0.00 | 97 | 1026.3 |
| 20260502112002 | 30 | 307 | 1.7 | 2.6 | 0.00 | 0.00 | 0.00 | 98 | 1026.3 |
| 20260502111002 | 29 | 300 | 0.9 | 1.7 | 0.00 | 0.00 | 0.00 | 98 | 1026.3 |
| 20260502110501 | 28 | 353 | 1.7 | 1.7 | 0.00 | 0.00 | 0.00 | 99 | 1026.2 |
| 20260502110002 | 28 | 307 | 2.6 | 2.6 | 0.00 | 0.00 | 0.00 | 99 | 1026.2 |
| 20260502105502 | 28 | 348 | 1.7 | 2.6 | 0.00 | 0.00 | 0.00 | 99 | 1026.4 |
| 20260502105001 | 28 | 354 | 1.7 | 1.7 | 0.00 | 0.00 | 0.00 | 99 | 1026.3 |
| 20260502104502 | 28 | 328 | 0.9 | 1.7 | 0.00 | 0.00 | 0.00 | 99 | 1026.2 |
| 20260502103502 | 28 | 332 | 0.9 | 1.7 | 0.00 | 0.00 | 0.00 | 99 | 1026.2 |
| 20260502103001 | 28 | 280 | 0.9 | 1.7 | 0.00 | 0.00 | 0.00 | 99 | 1026.2 |
| 20260502100502 | 25 | 60 | 1.7 | 1.7 | 0.00 | 0.00 | 0.00 | 99 | 1026.4 |
| 20260502091502 | 25 | 62 | 0.0 | 0.0 | 0.00 | 0.00 | 0.00 | 99 | 1026.1 |
| 20260502091001 | 25 | 73 | 0.9 | 1.7 | 0.00 | 0.00 | 0.00 | 99 | 1026.0 |
| 20260502090502 | 25 | 60 | 1.7 | 1.7 | 0.00 | 0.00 | 0.00 | 99 | 1026.2 |
| 20260502071501 | 26 | 100 | 0.9 | 1.7 | 0.00 | 0.00 | 0.00 | 99 | 1025.6 |
| 20260502070502 | 26 | 94 | 0.9 | 1.7 | 0.00 | 0.00 | 0.00 | 99 | 1025.4 |
| 20260502070002 | 26 | 122 | 0.0 | 0.0 | 0.00 | 0.00 | 0.00 | 99 | 1025.6 |
| 20260502065001 | 26 | 127 | 0.0 | 0.0 | 0.00 | 0.00 | 0.00 | 99 | 1025.6 |
| 20260502064502 | 26 | 134 | 0.0 | 0.0 | 0.00 | 0.00 | 0.00 | 99 | 1025.6 |
| 20260502064001 | 26 | 52 | 1.7 | 2.6 | 0.00 | 0.00 | 0.00 | 99 | 1025.6 |
| 20260502063502 | 26 | 115 | 0.0 | 0.0 | 0.00 | 0.00 | 0.00 | 99 | 1025.6 |
| 20260502063002 | 26 | 135 | 0.0 | 0.0 | 0.00 | 0.00 | 0.00 | 98 | 1025.5 |
| 20260502062002 | 27 | 131 | 0.0 | 0.0 | 0.00 | 0.00 | 0.00 | 99 | 1025.6 |
| 20260502061502 | 27 | 112 | 0.0 | 0.0 | 0.00 | 0.00 | 0.00 | 98 | 1025.6 |
| 20260502061002 | 27 | 63 | 0.0 | 0.0 | 0.00 | 0.00 | 0.00 | 98 | 1025.5 |
| 20260502060501 | 27 | 59 | 0.0 | 0.0 | 0.00 | 0.00 | 0.00 | 98 | 1025.2 |
| 20260502055501 | 27 | 68 | 0.0 | 0.0 | 0.00 | 0.00 | 0.00 | 98 | 1025.4 |
| 20260502055002 | 27 | 67 | 0.0 | 0.0 | 0.00 | 0.00 | 0.00 | 98 | 1025.4 |
| 20260502054501 | 27 | 69 | 0.0 | 0.0 | 0.00 | 0.00 | 0.00 | 98 | 1025.4 |
| 20260502054002 | 27 | 70 | 0.0 | 0.0 | 0.00 | 0.00 | 0.00 | 98 | 1025.4 |
| 20260502053001 | 28 | 61 | 0.0 | 0.0 | 0.00 | 0.00 | 0.00 | 98 | 1025.3 |
| 20260502052502 | 28 | 53 | 1.7 | 1.7 | 0.00 | 0.00 | 0.00 | 98 | 1025.5 |
| 20260502052001 | 28 | 54 | 1.7 | 1.7 | 0.00 | 0.00 | 0.00 | 98 | 1025.2 |
| 20260502051502 | 28 | 53 | 1.7 | 1.7 | 0.00 | 0.00 | 0.00 | 98 | 1025.3 |
| 20260502051001 | 28 | 55 | 1.7 | 2.6 | 0.00 | 0.00 | 0.00 | 98 | 1025.3 |
| 20260502050502 | 28 | 60 | 0.9 | 1.7 | 0.00 | 0.00 | 0.00 | 98 | 1025.1 |
| 20260502050001 | 28 | 67 | 0.9 | 1.7 | 0.00 | 0.00 | 0.00 | 98 | 1025.3 |
| 20260502045502 | 28 | 69 | 0.0 | 0.0 | 0.00 | 0.00 | 0.00 | 98 | 1025.1 |
| 20260502044502 | 28 | 55 | 1.7 | 1.7 | 0.00 | 0.00 | 0.00 | 98 | 1025.1 |
| 20260502041502 | 29 | 64 | 0.9 | 1.7 | 0.00 | 0.00 | 0.00 | 97 | 1025.0 |
| 20260502040502 | 29 | 62 | 0.9 | 1.7 | 0.00 | 0.00 | 0.00 | 97 | 1025.0 |
| 20260502035502 | 29 | 57 | 1.7 | 1.7 | 0.00 | 0.00 | 0.00 | 96 | 1024.9 |
| 20260502034002 | 30 | 55 | 1.7 | 1.7 | 0.00 | 0.00 | 0.00 | 95 | 1025.0 |
| 20260502033501 | 30 | 59 | 1.7 | 2.6 | 0.00 | 0.00 | 0.00 | 95 | 1025.0 |
| 20260502033002 | 31 | 59 | 1.7 | 2.6 | 0.00 | 0.00 | 0.00 | 95 | 1024.8 |
| 20260502031002 | 32 | 339 | 1.7 | 1.7 | 0.00 | 0.00 | 0.00 | 94 | 1024.7 |
| 20260502030001 | 33 | 348 | 1.7 | 1.7 | 0.00 | 0.00 | 0.00 | 93 | 1024.7 |
| 20260502025001 | 32 | 285 | 0.0 | 0.0 | 0.00 | 0.00 | 0.00 | 94 | 1024.6 |
| 20260502024502 | 33 | 357 | 0.9 | 1.7 | 0.00 | 0.00 | 0.00 | 93 | 1024.5 |
| 20260502024001 | 33 | 348 | 0.0 | 0.0 | 0.00 | 0.00 | 0.00 | 92 | 1024.8 |
| 20260502023502 | 34 | 350 | 0.9 | 1.7 | 0.00 | 0.00 | 0.00 | 91 | 1024.7 |
| 20260502022502 | 35 | 338 | 1.7 | 1.7 | 0.00 | 0.00 | 0.00 | 89 | 1024.7 |
| 20260502022002 | 36 | 226 | 1.7 | 2.6 | 0.00 | 0.00 | 0.00 | 90 | 1024.4 |
| 20260502020501 | 36 | 311 | 2.6 | 3.5 | 0.00 | 0.00 | 0.00 | 90 | 1024.6 |
| 20260502020002 | 36 | 342 | 2.6 | 3.5 | 0.00 | 0.00 | 0.00 | 90 | 1024.6 |
| 20260502015501 | 36 | 301 | 3.5 | 4.3 | 0.00 | 0.00 | 0.00 | 90 | 1024.4 |
| 20260502015002 | 36 | 266 | 1.7 | 2.6 | 0.00 | 0.00 | 0.00 | 90 | 1024.5 |
| 20260502014502 | 37 | 268 | 5.2 | 6.1 | 0.00 | 0.00 | 0.00 | 90 | 1024.2 |
| 20260502014001 | 37 | 290 | 4.3 | 5.2 | 0.00 | 0.00 | 0.00 | 91 | 1024.2 |
| 20260502013502 | 37 | 255 | 7.8 | 8.7 | 0.00 | 0.00 | 0.00 | 91 | 1024.2 |
| 20260502012002 | 37 | 289 | 5.2 | 6.1 | 0.00 | 0.00 | 0.00 | 89 | 1024.1 |
| 20260502011002 | 37 | 288 | 5.2 | 5.2 | 0.00 | 0.00 | 0.00 | 89 | 1023.9 |
| 20260502004502 | 37 | 308 | 6.1 | 7.8 | 0.00 | 0.00 | 0.00 | 88 | 1023.7 |
| 20260502004002 | 37 | 299 | 2.6 | 3.5 | 0.00 | 0.00 | 0.00 | 89 | 1023.8 |
| 20260502001502 | 37 | 286 | 7.8 | 8.7 | 0.00 | 0.00 | 0.00 | 87 | 1023.4 |
| 20260502001001 | 37 | 284 | 7.8 | 8.7 | 0.00 | 0.00 | 0.00 | 88 | 1023.6 |
| 20260501235502 | 37 | 295 | 5.2 | 6.1 | 0.00 | 0.00 | 0.00 | 87 | 1023.4 |
| 20260501234002 | 38 | 287 | 8.7 | 10.4 | 0.00 | 0.00 | 0.00 | 85 | 1023.2 |
| 20260501232501 | 38 | 276 | 6.1 | 8.7 | 0.00 | 0.00 | 0.00 | 83 | 1023.4 |
| 20260501230001 | 38 | 272 | 6.1 | 7.8 | 0.00 | 0.00 | 0.00 | 82 | 1023.2 |
| 20260501225001 | 38 | 318 | 7.0 | 9.6 | 0.00 | 0.00 | 0.00 | 79 | 1023.1 |
| 20260501224002 | 38 | 263 | 12.2 | 13.9 | 0.00 | 0.00 | 0.00 | 81 | 1023.2 |
| 20260501223501 | 38 | 293 | 10.4 | 11.3 | 0.00 | 0.00 | 0.00 | 84 | 1023.0 |
| 20260501223002 | 38 | 266 | 11.3 | 12.2 | 0.00 | 0.00 | 0.00 | 81 | 1023.0 |
| 20260501222002 | 39 | 294 | 7.8 | 8.7 | 0.00 | 0.00 | 0.00 | 79 | 1022.8 |
| 20260501221502 | 39 | 301 | 9.6 | 12.2 | 0.00 | 0.00 | 0.00 | 80 | 1022.7 |
| 20260501221002 | 39 | 299 | 9.6 | 12.2 | 0.00 | 0.00 | 0.00 | 77 | 1022.7 |
| 20260501220502 | 39 | 300 | 7.8 | 9.6 | 0.00 | 0.00 | 0.00 | 77 | 1022.6 |
| 20260501215502 | 39 | 323 | 5.2 | 7.8 | 0.00 | 0.00 | 0.00 | 75 | 1022.5 |
| 20260501215001 | 40 | 233 | 7.8 | 8.7 | 0.00 | 0.00 | 0.00 | 78 | 1022.6 |
| 20260501214502 | 39 | 274 | 5.2 | 6.1 | 0.00 | 0.00 | 0.00 | 76 | 1022.6 |
| 20260501214001 | 39 | 268 | 9.6 | 11.3 | 0.00 | 0.00 | 0.00 | 76 | 1022.4 |
| 20260501213502 | 39 | 304 | 5.2 | 7.8 | 0.00 | 0.00 | 0.00 | 76 | 1022.3 |
| 20260501213001 | 39 | 253 | 9.6 | 12.2 | 0.00 | 0.00 | 0.00 | 77 | 1022.2 |
| 20260501212502 | 40 | 282 | 4.3 | 5.2 | 0.00 | 0.00 | 0.00 | 77 | 1022.1 |
| 20260501211002 | 39 | 276 | 6.1 | 8.7 | 0.00 | 0.00 | 0.00 | 79 | 1022.1 |
| 20260501210502 | 39 | 286 | 4.3 | 7.8 | 0.00 | 0.00 | 0.00 | 78 | 1022.2 |
| 20260501210002 | 40 | 263 | 7.8 | 9.6 | 0.00 | 0.00 | 0.00 | 79 | 1022.3 |
| 20260501204501 | 39 | 279 | 10.4 | 11.3 | 0.00 | 0.00 | 0.00 | 81 | 1021.7 |
| 20260501203002 | 39 | 292 | 15.6 | 16.5 | 0.00 | 0.00 | 0.00 | 79 | 1021.8 |
| 20260501202502 | 39 | 279 | 9.6 | 11.3 | 0.00 | 0.00 | 0.00 | 79 | 1021.9 |
| 20260501202002 | 39 | 268 | 6.1 | 8.7 | 0.00 | 0.00 | 0.00 | 77 | 1022.1 |
| 20260501201502 | 40 | 278 | 10.4 | 12.2 | 0.00 | 0.00 | 0.00 | 76 | 1021.9 |
| 20260501201002 | 40 | 272 | 7.8 | 9.6 | 0.00 | 0.00 | 0.00 | 78 | 1021.9 |
| 20260501200502 | 41 | 278 | 9.6 | 11.3 | 0.00 | 0.00 | 0.00 | 74 | 1021.8 |
| 20260501200002 | 41 | 290 | 6.1 | 7.8 | 0.00 | 0.00 | 0.00 | 73 | 1021.8 |
| 20260501195502 | 42 | 305 | 3.5 | 4.3 | 0.00 | 0.00 | 0.00 | 62 | 1021.9 |
| 20260501195001 | 41 | 265 | 5.2 | 6.1 | 0.00 | 0.00 | 0.00 | 72 | 1021.7 |
| 20260501194502 | 42 | 321 | 6.1 | 8.7 | 0.00 | 0.00 | 0.00 | 62 | 1021.8 |
| 20260501194001 | 43 | 275 | 3.5 | 5.2 | 0.00 | 0.00 | 0.00 | 59 | 1022.0 |
| 20260501193502 | 43 | 349 | 4.3 | 4.3 | 0.00 | 0.00 | 0.00 | 60 | 1021.7 |
| 20260501193002 | 42 | 354 | 3.5 | 4.3 | 0.00 | 0.00 | 0.00 | 60 | 1022.0 |
| 20260501192002 | 40 | 277 | 11.3 | 12.2 | 0.00 | 0.00 | 0.00 | 74 | 1021.9 |
| 20260501191501 | 41 | 262 | 9.6 | 11.3 | 0.00 | 0.00 | 0.00 | 74 | 1021.8 |
| 20260501190501 | 40 | 284 | 9.6 | 10.4 | 0.00 | 0.00 | 0.00 | 78 | 1021.7 |
| 20260501190002 | 40 | 280 | 7.8 | 9.6 | 0.00 | 0.00 | 0.00 | 77 | 1021.9 |
| 20260501185502 | 40 | 259 | 8.7 | 9.6 | 0.00 | 0.00 | 0.00 | 78 | 1021.5 |
| 20260501185002 | 39 | 267 | 7.8 | 9.6 | 0.00 | 0.00 | 0.00 | 78 | 1021.7 |
| 20260501184501 | 39 | 267 | 7.8 | 9.6 | 0.00 | 0.00 | 0.00 | 79 | 1021.7 |
| 20260501184002 | 39 | 269 | 6.1 | 6.1 | 0.00 | 0.00 | 0.00 | 76 | 1021.7 |